Location: Potawatomi Wildlife Park
(41.2308°N, 86.1050°W)
Time: 23:37:51
(UTC-04:00)

Daily predictions for brighter satellites

Satellite Brightness Start Highest point End
(mag) Time Altitude Azimuth Time Altitude Azimuth Time Altitude Azimuth
CENTAUR R/B 4.2 21:21:24 10° NW 21:28:49 44° WSW 21:36:32 10° S
SPOT 5 4.4 21:24:52 10° ESE 21:29:04 24° ENE 21:33:17 10° NNE
Cosmos 1452 Rocket 3.5 21:28:15 10° S 21:33:26 64° ESE 21:38:40 10° NNE
Cosmos 1190 Rocket 4.4 21:30:05 10° NNW 21:35:15 66° WSW 21:40:23 10° S
Cosmos 1184 Rocket 3.8 21:35:25 10° SSE 21:38:20 28° E 21:41:16 10° NNE
Cosmos 1674 Rocket 3.7 21:35:23 10° N 21:39:51 83° W 21:44:16 10° S
Cosmos 2297 4.4 21:39:49 10° SSE 21:44:49 33° ESE 21:49:52 10° NE
H-2A R/B 4.4 21:43:57 10° SW 21:48:04 30° SSE 22:04:11 10° ESE
Okean 2 Rocket 3.6 21:48:57 10° SSE 21:53:00 37° E 21:57:04 10° NNE
Cosmos 1606 2.7 21:50:15 10° N 21:54:12 88° ENE 21:58:07 10° S
BREEZE-M DEB (TANK) 3.7 21:53:09 10° WNW 21:54:54 20° NNW 21:56:41 10° NE
Cosmos 2084 4.2 21:52:02 10° SW 21:55:48 51° NW 21:59:33 10° NNE
Cosmos 1782 Rocket 3.8 21:53:28 10° S 21:57:48 53° E 22:02:10 10° NNE
EO 1 Delta rocket 4.2 21:52:56 10° NNE 21:58:39 55° E 22:03:22 10° S
CZ-4 DEB 3.5 21:57:02 10° S 22:00:07 53° W 22:03:14 10° NNW
USA 229 DEB 4.4 21:54:10 10° NNW 22:00:58 46° NE 22:07:00 13° ESE
USA 229 4.4 21:54:16 10° NNW 22:01:04 45° NE 22:07:06 13° ESE
Cosmos 1242 Rocket 3.2 21:58:31 10° N 22:02:01 40° ENE 22:04:46 15° SE
USA 186 4.1 22:02:16 10° SSW 22:04:56 24° W 22:07:43 10° NW
Cosmos 1850 Rocket 4.3 21:59:50 10° N 22:05:03 53° ENE 22:09:25 15° SE
ALOS 4.1 22:01:55 10° SSW 22:06:00 30° W 22:10:07 10° NW
COS B Rocket 3.0 22:03:12 10° N 22:07:06 73° E 22:10:32 10° S
Cosmos 1862 3.5 22:03:31 10° S 22:07:35 79° W 22:11:42 10° N
Sich 1 Rocket 4.5 22:03:34 10° SSW 22:08:03 54° W 22:12:33 10° N
Elektron 3 4.2 22:05:36 10° NNW 22:08:28 59° NE 22:11:16 17° SE
Cosmos 1954 Rocket 4.2 22:03:52 10° NNW 22:09:04 72° WSW 22:14:17 10° S
Nadezhda 3 Rocket 4.1 22:04:03 10° N 22:10:27 86° W 22:16:49 10° S
GPS 2-05 Rocket1 3.9 22:08:33 10° WSW 22:11:57 33° S 22:13:49 20° SE
Cosmos 1975 Rocket 3.0 22:07:58 10° N 22:12:18 69° E 22:16:10 13° SSE
OAO 3 Rocket 4.0 22:07:54 10° SW 22:12:23 34° SSE 22:15:30 17° ESE
YAOGAN 6 3.5 22:10:46 19° ESE 22:12:36 30° ENE 22:15:44 10° N
ARGOS 4.2 22:09:05 15° ESE 22:12:36 30° ENE 22:17:12 10° N
DNEPR-1 R/B 3.8 22:07:27 10° NNW 22:12:51 85° ENE 22:16:17 17° SE
Lacrosse 5 rocket 2.5 22:10:07 10° S 22:13:02 20° SE 22:15:51 10° ENE
BREEZE-M DEB (TANK) 4.3 22:12:02 10° WNW 22:14:35 36° N 22:20:19 10° ENE
Cosmos 1408 2.8 22:11:34 10° SSW 22:15:12 71° W 22:18:51 10° N
PSLV R/B 3.8 22:16:18 24° ESE 22:17:31 35° ENE 22:20:15 10° N
Meteor 1-27 Rocket 4.3 22:14:08 10° NNW 22:19:34 58° W 22:24:57 10° S
Cosmos 1378 Rocket 4.0 22:15:59 10° NNW 22:20:14 60° W 22:24:30 10° S
Cosmos 1023 Rocket 4.5 22:16:06 10° NNW 22:21:14 83° WSW 22:25:37 14° SSE
CZ-4 SHROUD 3.6 22:23:31 28° SE 22:24:45 44° ENE 22:27:43 10° N
Cosmos 1741 Rocket 3.9 22:22:04 10° NNW 22:27:19 80° ENE 22:31:03 19° SSE
Nimbus 7 Rocket 4.4 22:23:27 10° NNE 22:29:26 85° ESE 22:35:27 10° SSW
MetOp-A 4.1 22:31:18 18° SSE 22:35:17 78° ENE 22:40:39 10° N
Cosmos 1110 Rocket 4.5 22:35:43 21° SSE 22:38:36 39° ESE 22:43:25 10° NE
Cosmos 1825 3.8 22:35:25 10° SW 22:38:56 35° WNW 22:42:28 10° N
Cosmos 614 Rocket 3.9 22:34:48 10° NNW 22:39:55 86° WSW 22:43:08 23° SSE
Envisat 3.5 22:35:07 10° S 22:40:02 56° W 22:45:03 10° NNW
deb Chang Zheng 4 4.3 22:37:00 10° N 22:41:21 56° WNW 22:45:41 10° SSW
SEDSat Delta rocket 4.3 22:38:05 10° SW 22:41:22 21° S 22:41:22 21° S
Cosmos 1833 Rocket 2.8 22:36:28 10° NNW 22:42:04 63° ENE 22:45:06 27° SE
SL-8 Rocket 3.9 22:38:56 10° S 22:45:13 86° E 22:51:29 10° N
Terra 3.2 22:44:32 20° E 22:46:01 24° ENE 22:49:46 10° NNE
USA 245 3.3 22:46:36 38° SE 22:47:51 66° ENE 22:52:14 10° N
ISS -0.6 22:46:51 10° WNW 22:49:24 21° NNW 22:51:58 10° NNE
Cosmos 2278 Rocket 3.7 22:44:50 10° SW 22:50:05 38° WNW 22:55:23 10° N
H-2A R/B 3.1 22:46:49 13° SSW 22:50:24 40° W 22:54:22 10° NNW
Timation 1 Rocket 4.3 22:51:05 10° SSW 22:57:01 65° ESE 23:02:58 10° NNE
Abrixas 2.6 22:54:11 10° WSW 22:57:13 75° NNW 22:58:22 34° NE
Cosmos 2151 Rocket 3.6 22:56:55 24° S 22:59:41 90° ENE 23:04:15 10° N
USA 234 4.4 22:54:42 10° ENE 22:58:07 21° ESE 22:58:07 21° ESE
Meteor 1-25 Rocket 4.2 22:58:34 24° S 23:02:11 69° E 23:07:59 10° NNE
Cosmos 1300 Rocket 4.0 23:04:46 40° ESE 23:05:12 41° E 23:09:23 10° NNE
CZ-4B R/B 3.3 23:00:36 10° NNE 23:05:32 83° ESE 23:08:19 25° S
SPOT 5 3.9 23:02:47 16° SSW 23:06:46 46° W 23:11:56 10° NNW
Cosmos 2082 Rocket 2.5 23:04:24 10° NNW 23:10:02 62° WSW 23:12:49 30° S
Okean 1 3.6 23:06:20 10° N 23:10:19 49° E 23:10:39 48° E
Okean 1 Rocket 3.4 23:13:53 44° E 23:14:05 44° E 23:18:20 10° NNE
Cosmos 864 Rocket 4.5 23:09:39 19° S 23:14:16 84° W 23:20:29 10° N
Cosmos 1812 2.6 23:11:03 10° N 23:14:55 68° E 23:15:11 66° ESE
Lacrosse 5 1.8 23:13:59 10° SSW 23:18:59 62° SE 23:24:02 10° NE
Genesis I 4.0 23:21:07 39° ENE 23:21:07 39° ENE 23:23:56 10° NE
H-2A R/B 2.2 23:20:50 45° SE 23:22:21 64° ENE 23:27:35 10° N
Cosmos 2366 rocket 4.4 23:22:11 15° SSW 23:27:30 63° W 23:33:49 10° N
Cosmos 1302 Rocket 4.0 23:32:20 55° SSE 23:33:08 63° ESE 23:38:23 10° NNE
Okean 1-7 Rocket 3.5 23:30:17 10° N 23:34:46 68° E 23:34:56 67° E
SPOT 1/Viking Rocket 4.5 23:35:56 27° SSW 23:38:14 41° W 23:43:11 10° NNW
Meteor 1-13 Rocket 4.3 23:36:31 10° N 23:42:30 74° E 23:43:51 54° SE
ASTEX 1 3.3 23:39:13 10° NNE 23:44:10 65° E 23:44:25 64° ESE
Iridium 4 Rocket 4.1 23:43:03 10° N 23:48:47 49° E 23:49:23 47° ESE
CARTOSAT-1 3.5 23:49:49 77° WSW 23:49:51 77° WSW 23:54:11 10° NNW
Lacrosse 5 rocket 2.1 23:48:15 10° WSW 23:52:00 46° NW 23:55:38 10° NE
ARGOS 4.3 23:50:37 26° SW 23:52:43 36° W 23:57:38 10° NNW
